JAS-2 (FO-29)

Last updated on Sat Apr 13 2024 01:02:57 GMT+0100 (British Summer Time)

1 24278U 96046B 24103.38772984 .00000065 00000+0 10296-3 0 9997 2 24278 98.5757 46.6780 0350197 358.8814 1.1508 13.53180060365533
UTC large
Height (km)
Speed (km/s)
/
Latitude / Longitude
Inclination (degrees)
Orbital Period (minutes)
Azimuth
Elevation
Range (km)
Doppler Factor

Next 0 passes for location: London (51.5072 / 0.1276)

Sorry there are no passes over London.